This demonstration page uses our WeatherBlox Daily Observations layout. Learn more.

Left ArrowRight Arrow

44.8408, -93.29828

Hourly Observations for July 5, 2017

Temp ( °F °C ) Dew Point ( °F °C ) Humidity (%) Winds ( mph kmh ) Pressure ( in mb ) Visibility ( mi km ) Precip ( " mm )
12:53 am 00:53 Cloudy 78 25.6 68 20 71 71 N 12 19 30.02 1017 10 16 0.00 0.00
1:53 am 01:53 Cloudy 73 22.8 65 18.3 76 76 ESE 6 9 30.00 1016 10 16 0.00 0.03
2:53 am 02:53 Mostly Cloudy 73 22.8 65 18.3 76 76 S 8 13 30.01 1016 10 16 0.00 0.00
3:53 am 03:53 Mostly Cloudy 76 24.4 66 18.9 72 72 SSW 6 9 30.01 1016 10 16 0.00 0.00
4:53 am 04:53 Mostly Cloudy 76 24.4 65 18.3 69 69 SSW 8 13 30.00 1016 10 16 0.00 0.00
5:53 am 05:53 Mostly Cloudy 76 24.4 65 18.3 69 69 SW 7 11 30.02 1017 10 16 0.00 0.00
6:53 am 06:53 Mostly Cloudy 74 23.3 64 17.8 71 71 W 7 11 30.04 1017 10 16 0.00 0.00
7:53 am 07:53 Mostly Cloudy 75 23.9 64 17.8 69 69 WSW 10 17 30.05 1018 10 16 0.00 0.00
8:53 am 08:53 Mostly Cloudy 77 25 65 18.3 66 66 SW 12 19 30.02 1017 10 16 0.00 0.00
9:53 am 09:53 Mostly Cloudy 77 25 65 18.3 66 66 S 7 11 30.00 1016 10 16 0.00 0.00
10:53 am 10:53 Mostly Cloudy 79 26.1 67 19.4 67 67 N 6 9 30.01 1016 10 16 0.00 0.00
11:53 am 11:53 Mostly Cloudy 80 26.7 66 18.9 62 62 NE 3 6 30.01 1016 10 16 0.00 0.00
12:53 pm 12:53 Mostly Cloudy 83 28.3 67 19.4 59 59 SE 5 7 30.01 1016 10 16 0.00 0.00
1:53 pm 13:53 Mostly Cloudy 87 30.6 68 20 53 53 VRB 3 6 30.00 1016 10 16 0.00 0.00
2:53 pm 14:53 Partly Cloudy 88 31.1 66 18.9 48 48 WSW 10 17 30.00 1016 10 16 0.00 0.00
3:53 pm 15:53 Partly Cloudy 89 31.7 66 18.9 47 47 W 12 19 29.98 1015 10 16 0.00 0.00
4:53 pm 16:53 Mostly Sunny 91 32.8 64 17.8 41 41 WSW 12 19 29.97 1015 10 16 0.00 0.00
5:53 pm 17:53 Sunny 90 32.2 66 18.9 45 45 WSW 9 15 29.95 1014 10 16 0.00 0.00
6:53 pm 18:53 Sunny 90 32.2 66 18.9 45 45 SW 14 22 29.94 1014 10 16 0.00 0.00
7:53 pm 19:53 Sunny 89 31.7 65 18.3 45 45 WSW 9 15 29.94 1014 10 16 0.00 0.00
8:53 pm 20:53 Sunny 88 31.1 64 17.8 45 45 SSW 8 13 29.94 1014 10 16 0.00 0.00
9:53 pm 21:53 Clear 86 30 64 17.8 48 48 S 7 11 29.95 1014 10 16 0.00 0.00
10:53 pm 22:53 Clear 83 28.3 64 17.8 53 53 S 5 7 29.95 1014 10 16 0.00 0.00
11:53 pm 23:53 Clear 82 27.8 64 17.8 55 55 S 8 13 29.93 1014 10 16 0.00 0.00

Powered by AerisWeather